Wind_Speed
12 11 7 7 12 18 22 23 22 22 21 20 19 20 21 24 27 31 33 34 34 36 37 37 37 36 36 37 38 42 44 47 43 46 43 43 52 40 48 40 42 37 41 48 43
10 8 8 5 9 15 19 21 21 20 19 19 19 20 20 20 22 25 28 31 32 35 35 37 37 37 38 39 39 40 40 39 39 47 47 44 51 43 50 41 42 41 42 42 42
8 6 6 7 6 9 14 18 19 19 19 18 19 19 18 19 20 21 24 26 28 30 30 33 35 36 37 38 38 38 40 40 47 44 45 44 46 41 49 42 42 41 45 45 45
5 4 4 8 10 11 11 13 16 18 18 18 18 18 19 19 23 18 21 22 24 26 27 27 29 30 33 35 36 37 36 40 44 45 45 47 48 45 46 44 45 45 44 45 40
2 4 5 6 10 12 14 16 16 16 17 17 18 19 20 20 19 19 19 19 20 22 24 26 27 28 28 29 32 31 33 37 38 39 39 39 40 40 43 44 40 46 45 43 43
4 4 5 8 8 11 14 16 18 19 20 20 20 21 21 21 19 19 19 19 19 19 20 21 23 25 25 26 27 30 30 30 32 33 34 34 34 36 37 37 39 40 39 39 42
10 8 7 8 9 12 12 14 16 18 20 21 21 21 22 21 22 22 21 21 22 22 23 24 23 22 26 23 25 26 25 28 29 30 32 32 31 32 33 36 35 33 36 36 38
9 14 12 11 11 11 12 16 16 16 17 18 19 20 20 22 22 21 21 22 23 23 24 23 25 26 25 29 23 27 28 28 28 31 31 32 29 30 35 36 34 35 40 39 38
14 12 16 17 16 15 14 14 14 16 19 19 18 18 18 19 19 19 20 21 21 21 21 22 24 25 25 26 27 27 26 26 24 30 30 31 29 31 37 31 35 37 37 38 40
12 13 13 12 22 20 18 17 16 16 15 15 16 20 22 22 22 22 21 20 21 21 21 22 24 24 25 27 25 19 24 27 27 27 32 35 35 33 39 37 39 40 39 41 42
17 15 14 14 11 26 22 20 20 19 19 19 17 18 18 18 20 22 25 27 28 28 26 27 28 27 28 30 30 34 34 31 29 35 42 40 41 42 44 44 44 43 44 44 44
21 20 17 15 14 13 20 26 23 23 24 23 23 23 22 22 22 21 21 21 23 24 28 31 31 32 35 39 39 38 38 37 36 39 43 41 37 37 38 34 34 34 35 33 34
17 19 18 15 15 15 15 18 30 33 29 28 27 26 24 25 26 25 25 27 25 26 26 27 25 32 32 33 32 31 32 31 36 36 40 34 36 35 36 34 35 37 33 35 38
13 15 15 13 16 15 16 16 17 15 23 32 35 32 30 30 30 31 28 29 29 29 30 32 30 33 30 32 33 33 31 36 38 36 39 36 40 34 37 36 39 39 37 39 41
14 13 12 14 16 15 16 16 16 16 17 19 23 33 34 33 36 35 35 34 32 32 34 28 33 35 34 32 37 35 36 39 38 37 40 41 44 38 36 39 39 41 39 41 46
11 12 11 8 13 17 16 14 14 15 20 19 19 18 25 35 39 38 36 38 38 38 39 34 38 39 33 38 41 35 39 38 39 39 45 39 42 37 31 32 32 37 40 45 54
9 10 9 8 3 8 13 13 14 15 18 20 18 17 18 21 28 37 43 42 38 35 37 35 37 38 38 38 38 36 36 37 37 33 41 28 31 29 26 37 41 35 36 48 50
8 8 8 7 2 5 2 8 13 15 16 16 17 18 17 17 20 25 31 36 34 37 43 42 41 39 36 40 38 36 32 33 38 34 34 32 36 32 30 42 48 45 41 45 48
6 6 6 7 6 4 6 6 4 2 1 3 3 6 9 9 11 14 19 21 19 23 23 26 29 34 36 39 41 37 38 32 45 46 47 41 40 36 29 32 45 49 45 33 39
4 2 3 4 4 4 4 6 5 4 2 2 2 3 3 4 4 8 9 11 15 17 17 24 27 28 32 36 36 39 38 38 39 44 44 34 24 18 28 34 41 51 51 51 44
7 5 5 5 3 3 3 1 3 4 4 4 5 5 5 6 9 10 9 14 14 18 20 24 27 25 31 35 38 41 46 44 43 48 49 48 40 30 40 46 44 48 50 54 57
9 9 9 8 8 8 9 10 10 10 10 10 10 11 11 12 13 15 15 19 20 21 27 30 30 32 29 33 35 39 38 38 37 39 39 42 43 34 43 43 44 48 51 55 57
8 8 7 9 10 11 13 15 16 17 17 16 16 16 16 19 18 18 21 26 25 26 29 29 35 37 36 34 31 36 39 39 40 38 41 41 39 43 44 44 46 50 53 57 54
9 10 9 9 10 11 12 14 16 18 19 20 19 20 20 22 23 20 24 25 28 30 30 33 34 38 40 37 27 27 30 35 37 41 42 42 43 42 46 47 45 50 57 56 52
11 12 13 11 12 13 14 15 16 17 18 18 19 21 22 24 25 25 26 30 34 33 37 38 37 33 36 38 37 41 46 46 44 41 44 41 42 42 42 41 48 53 54 53 52
12 13 15 15 15 15 17 19 20 21 21 20 21 21 22 24 26 27 33 32 34 37 39 40 34 31 30 30 31 31 32 32 33 35 37 38 38 32 33 40 43 44 41 44 46
15 17 16 17 17 20 19 20 21 23 23 25 25 24 25 24 26 28 31 32 36 36 33 32 29 22 20 26 28 27 24 24 26 25 24 25 23 29 32 38 38 37 38 41 44
Wind_Direction
60 88 108 165 180 184 185 189 194 199 203 208 208 210 211 212 214 217 220 225 226 229 230 231 231 231 231 232 232 238 241 243 245 245 249 250 252 253 252 251 256 253 247 249 263
53 83 106 141 186 194 197 198 202 204 209 212 216 217 220 220 219 217 217 222 224 228 229 232 234 235 234 235 233 235 239 244 247 244 243 245 252 251 259 256 256 256 252 253 255
57 78 124 143 168 191 205 211 213 216 217 218 220 222 223 223 226 225 226 225 225 229 231 232 235 236 238 238 238 237 238 240 245 250 250 249 253 252 256 253 254 252 251 250 250
92 93 134 166 176 187 197 205 215 219 221 223 226 227 227 228 236 231 233 231 230 231 232 233 235 237 239 239 240 239 237 238 243 243 246 248 250 252 255 256 254 258 255 256 258
90 143 161 179 185 193 197 203 208 214 219 221 223 226 228 230 235 233 232 233 233 234 232 232 234 236 237 238 240 241 241 242 245 248 248 249 254 254 255 257 255 256 258 260 257
216 190 173 189 201 199 201 207 211 212 214 218 222 223 224 228 227 229 228 229 230 231 232 232 233 234 238 240 241 242 242 245 246 249 251 251 254 256 257 261 258 259 260 260 263
251 228 208 201 194 211 211 207 210 216 219 221 224 227 229 231 229 229 227 226 226 227 228 230 234 235 237 241 240 245 243 244 245 249 250 252 252 255 257 257 259 262 262 261 264
273 241 234 221 216 208 211 220 222 216 215 217 221 224 227 229 232 233 233 232 231 232 234 236 236 239 242 245 248 244 244 246 248 247 250 251 251 252 252 252 259 258 260 260 262
311 314 243 238 227 221 220 217 216 221 231 231 228 224 225 230 230 230 231 232 231 231 232 233 234 237 237 242 242 244 247 249 247 252 253 254 254 250 256 257 253 255 257 260 261
296 297 301 287 233 234 228 226 224 223 222 219 227 236 237 239 236 234 234 235 234 235 235 236 237 238 238 240 242 251 253 245 248 256 252 258 255 255 260 257 259 258 258 258 260
284 283 285 290 298 228 241 243 236 232 227 230 228 227 226 230 236 237 236 238 239 238 239 240 241 242 244 245 243 242 249 253 251 253 260 257 257 258 257 261 263 263 263 262 264
279 271 271 269 272 277 244 225 244 244 242 234 230 233 230 231 234 232 234 235 234 233 234 238 242 244 244 248 252 254 258 258 259 256 259 259 260 259 262 264 265 263 263 268 266
283 274 267 268 260 261 261 257 234 230 236 243 244 241 235 237 237 235 233 234 236 238 239 238 236 238 243 247 249 249 251 252 252 253 261 263 265 266 265 264 264 263 265 263 263
306 287 276 257 261 254 260 260 264 274 256 247 234 242 244 242 244 243 239 238 237 237 240 240 239 246 241 248 252 251 254 253 256 259 264 267 266 260 267 267 264 262 258 262 262
331 323 300 259 249 251 255 258 263 267 272 270 257 244 234 241 245 244 241 242 244 244 243 246 247 249 250 252 253 253 254 257 261 260 262 262 267 272 272 272 273 267 266 264 257
336 345 342 298 253 245 250 249 255 264 269 272 278 276 264 250 241 239 243 244 242 243 245 244 251 251 252 254 253 255 256 260 261 263 260 266 267 269 269 270 265 267 266 260 261
358 352 350 12 308 241 236 241 249 251 266 274 281 282 275 277 270 256 243 236 238 245 248 249 248 252 252 251 255 255 256 260 262 262 266 274 274 271 258 255 267 264 260 262 264
353 354 2 3 13 54 236 221 237 257 263 268 274 273 272 282 282 280 269 264 263 259 251 247 245 251 251 252 253 255 262 264 269 260 259 241 243 255 259 272 268 272 264 264 268
355 11 24 24 35 48 66 83 90 84 4 2 326 312 289 285 284 288 281 278 274 273 273 271 268 257 262 263 265 263 259 253 252 260 266 270 268 276 283 266 276 280 276 267 266
335 344 5 6 8 37 62 63 58 38 3 15 31 36 358 353 345 335 322 304 294 295 287 283 278 265 266 264 261 263 259 255 255 266 269 273 272 266 256 247 247 268 282 285 280
305 298 309 311 297 298 311 299 290 301 309 323 295 308 309 311 305 298 297 287 287 288 295 288 287 284 271 275 272 266 269 268 267 259 268 273 270 259 263 266 262 270 277 281 284
299 296 298 294 287 285 287 279 277 276 276 278 279 288 287 286 282 285 284 285 291 293 292 293 291 287 286 275 272 272 270 268 260 264 266 269 273 268 264 271 274 274 276 277 277
331 329 327 312 297 290 283 282 284 283 282 282 283 283 282 281 281 283 284 285 292 291 291 293 290 290 293 288 280 271 268 265 265 266 263 263 268 273 275 276 273 275 275 276 281
327 326 335 339 332 319 304 291 286 285 284 285 287 284 284 284 287 285 282 287 291 293 295 291 289 286 282 272 247 250 255 258 261 265 269 268 270 270 268 274 275 267 270 278 280
311 316 317 320 319 318 313 310 303 297 294 293 289 290 289 290 292 292 292 296 299 301 300 296 291 277 275 273 264 257 256 261 267 268 268 273 273 273 273 268 266 270 274 277 280
303 310 303 302 307 310 310 306 304 304 301 297 296 295 294 296 298 299 302 302 303 304 302 297 295 281 276 272 272 267 264 265 265 269 272 272 275 275 274 270 270 277 281 279 280
294 303 307 300 299 300 307 309 305 304 301 297 293 295 296 298 300 300 299 300 304 305 296 294 293 284 277 278 277 280 285 277 274 270 271 270 269 263 266 267 281 279 282 281 280
Height
5745 5745 5746 5747 5750 5752 5755 5759 5763 5767 5770 5773 5776 5779 5781 5784 5787 5792 5795 5799 5804 5806 5810 5813 5817 5820 5823 5827 5830 5833 5834 5839 5842 5843 5848 5848 5842 5853 5847 5856 5856 5861 5862 5858 5861
5748 5747 5747 5749 5750 5753 5756 5759 5762 5766 5769 5772 5774 5777 5780 5782 5785 5788 5791 5794 5798 5801 5804 5807 5810 5813 5818 5821 5824 5827 5829 5833 5835 5833 5836 5841 5836 5842 5840 5849 5849 5852 5854 5854 5854
5750 5749 5749 5749 5751 5754 5756 5759 5762 5765 5768 5771 5773 5776 5778 5781 5783 5786 5788 5791 5794 5796 5799 5803 5805 5808 5812 5814 5818 5820 5824 5827 5824 5827 5829 5832 5832 5836 5831 5839 5840 5842 5844 5846 5847
5751 5750 5750 5750 5751 5753 5755 5757 5760 5763 5766 5768 5771 5773 5776 5778 5780 5784 5786 5788 5790 5793 5796 5798 5801 5803 5807 5809 5812 5814 5817 5818 5819 5821 5824 5825 5825 5827 5827 5829 5831 5834 5836 5838 5842
5750 5750 5750 5750 5751 5751 5753 5755 5757 5759 5762 5765 5767 5770 5772 5775 5777 5779 5782 5784 5787 5789 5791 5794 5797 5799 5802 5804 5805 5808 5809 5810 5812 5814 5817 5818 5818 5821 5820 5821 5825 5824 5828 5829 5831
5749 5748 5748 5749 5750 5750 5751 5752 5754 5756 5758 5761 5763 5765 5767 5770 5773 5775 5778 5780 5782 5785 5787 5789 5792 5794 5796 5798 5800 5801 5803 5805 5807 5808 5810 5811 5813 5813 5815 5817 5817 5818 5821 5821 5821
5746 5746 5746 5746 5746 5748 5749 5750 5751 5753 5754 5756 5758 5760 5763 5766 5767 5769 5772 5775 5778 5781 5783 5785 5788 5790 5791 5794 5795 5797 5800 5800 5801 5803 5804 5806 5808 5809 5810 5808 5810 5812 5812 5814 5815
5743 5743 5743 5743 5744 5744 5746 5747 5748 5750 5752 5753 5755 5757 5759 5761 5764 5766 5768 5770 5773 5775 5777 5780 5782 5784 5787 5787 5792 5791 5793 5795 5796 5796 5798 5800 5803 5803 5802 5803 5805 5805 5804 5806 5808
5741 5740 5740 5739 5740 5741 5742 5743 5744 5745 5748 5750 5752 5753 5755 5757 5759 5761 5764 5766 5768 5770 5773 5775 5776 5779 5781 5783 5784 5786 5788 5789 5791 5790 5792 5793 5795 5795 5794 5797 5797 5798 5799 5798 5798
5738 5737 5736 5735 5736 5736 5738 5739 5741 5742 5743 5744 5746 5749 5750 5752 5754 5756 5758 5761 5763 5765 5767 5769 5771 5773 5775 5776 5780 5783 5782 5784 5785 5785 5784 5783 5785 5787 5785 5788 5788 5788 5790 5791 5790
5734 5733 5733 5732 5732 5732 5734 5736 5738 5739 5738 5740 5742 5743 5744 5747 5748 5751 5753 5755 5757 5760 5763 5764 5765 5768 5770 5771 5773 5773 5774 5777 5779 5778 5773 5776 5776 5778 5779 5779 5780 5781 5781 5782 5783
5729 5728 5727 5728 5728 5729 5728 5730 5732 5735 5734 5734 5735 5736 5739 5741 5743 5745 5748 5750 5751 5753 5754 5757 5759 5762 5762 5763 5764 5767 5768 5770 5770 5769 5765 5766 5769 5770 5771 5773 5773 5773 5773 5774 5774
5724 5722 5723 5725 5724 5725 5725 5725 5725 5726 5728 5730 5731 5731 5734 5735 5736 5739 5742 5742 5745 5747 5749 5750 5753 5752 5755 5756 5758 5760 5761 5762 5761 5761 5758 5762 5761 5763 5763 5765 5765 5764 5767 5766 5765
5719 5718 5718 5720 5721 5721 5721 5722 5723 5723 5723 5724 5725 5726 5728 5730 5732 5732 5735 5737 5738 5741 5742 5743 5746 5746 5749 5749 5750 5752 5754 5752 5752 5754 5753 5755 5751 5755 5755 5757 5756 5756 5759 5757 5757
5717 5715 5713 5713 5715 5717 5718 5718 5719 5720 5720 5719 5719 5720 5721 5723 5724 5726 5727 5730 5732 5733 5734 5739 5737 5738 5740 5743 5740 5744 5744 5743 5745 5746 5744 5746 5743 5746 5748 5747 5746 5746 5748 5747 5744
5715 5712 5710 5709 5709 5711 5713 5714 5715 5717 5714 5715 5714 5715 5715 5715 5715 5717 5720 5721 5723 5724 5726 5731 5730 5730 5734 5731 5731 5737 5735 5736 5736 5736 5734 5738 5739 5741 5742 5742 5740 5738 5736 5734 5728
5714 5711 5710 5708 5707 5707 5708 5710 5713 5712 5712 5711 5709 5709 5710 5709 5710 5710 5710 5711 5716 5718 5720 5723 5723 5724 5724 5724 5724 5726 5728 5728 5729 5729 5726 5735 5732 5733 5732 5728 5728 5730 5729 5719 5718
5713 5711 5709 5708 5706 5705 5705 5706 5707 5707 5706 5706 5705 5704 5704 5704 5703 5705 5706 5707 5709 5709 5710 5711 5715 5716 5717 5716 5717 5718 5721 5720 5716 5718 5720 5721 5717 5720 5723 5715 5714 5715 5718 5712 5708
5711 5710 5709 5708 5707 5705 5705 5704 5704 5703 5703 5702 5701 5700 5700 5699 5700 5701 5701 5702 5703 5703 5705 5704 5706 5708 5708 5709 5709 5712 5709 5713 5701 5702 5702 5707 5708 5709 5711 5709 5699 5694 5696 5702 5697
5709 5709 5708 5707 5706 5706 5705 5704 5703 5703 5702 5701 5700 5700 5699 5698 5697 5697 5698 5699 5698 5697 5697 5697 5696 5699 5698 5697 5699 5699 5701 5699 5698 5693 5692 5696 5699 5702 5694 5694 5691 5684 5684 5681 5684
5708 5706 5705 5705 5705 5705 5704 5703 5703 5702 5702 5701 5700 5698 5696 5695 5695 5694 5695 5694 5693 5691 5690 5689 5687 5692 5689 5689 5689 5689 5685 5687 5687 5686 5682 5683 5686 5690 5683 5680 5682 5678 5673 5668 5663
5704 5703 5702 5702 5703 5702 5702 5701 5700 5699 5698 5697 5696 5695 5692 5691 5690 5691 5690 5687 5687 5686 5682 5680 5680 5678 5681 5680 5678 5675 5676 5675 5673 5676 5674 5672 5670 5677 5668 5670 5667 5665 5662 5657 5653
5701 5699 5698 5697 5697 5697 5697 5696 5695 5694 5694 5692 5691 5689 5688 5686 5686 5685 5682 5680 5679 5679 5676 5674 5669 5667 5668 5669 5668 5665 5665 5665 5663 5663 5663 5663 5665 5661 5658 5657 5654 5651 5646 5642 5641
5699 5698 5696 5694 5694 5693 5692 5691 5690 5688 5688 5686 5685 5683 5681 5680 5678 5678 5675 5674 5671 5668 5667 5663 5662 5658 5656 5657 5660 5656 5653 5653 5653 5653 5652 5651 5650 5652 5646 5644 5641 5636 5631 5631 5629
5695 5695 5693 5692 5690 5690 5688 5687 5685 5683 5681 5680 5678 5676 5674 5673 5671 5668 5667 5663 5660 5658 5653 5651 5648 5646 5643 5642 5643 5643 5642 5643 5642 5643 5639 5642 5638 5637 5634 5634 5629 5624 5621 5618 5616
5691 5690 5689 5688 5686 5684 5683 5681 5680 5678 5676 5674 5671 5669 5667 5665 5663 5660 5655 5653 5651 5645 5641 5635 5635 5633 5633 5632 5630 5630 5632 5632 5632 5631 5629 5628 5626 5626 5621 5619 5616 5614 5611 5607 5603
5685 5684 5684 5683 5681 5679 5678 5675 5673 5671 5669 5666 5665 5662 5659 5657 5655 5652 5648 5645 5641 5637 5632 5629 5626 5625 5625 5624 5623 5623 5623 5621 5621 5621 5621 5619 5621 5616 5613 5609 5607 5605 5601 5596 5592